[[{"header":{"parameterUnit":"m.s-1","parameterCategory":2,"la1":30.2991,"la2":30.254,"lo1":-89.0895,"lo2":-89.0444,"dy":0.0017,"dx":0.0017,"nx":28,"ny":28,"refTime":"2024-12-05T09:00:00:Z","depth":"0","parameterNumber":2,"parameterNumberName":"U-component_of_CURRENTS"},"data":[0,0,0,0,0,0,0,0,0,0,0,0,0,0,0,0,0,0,0,0,0,0,0,0,0,0,0,0,0,0,0,0,0,0,0,0,0,0,0,0,0,0,0,0,0,0,0,0,0,0,0,0,0,0,0,0,0,0,-0.2978,-0.2978,0,-0.2987,-0.2987,-0.2987,-0.2954,-0.2953,-0.2952,-0.2951,-0.2909,-0.2908,-0.2908,0,0,0,0,0,0,0,0,0,0,0,0,0,-0.2916,-0.2917,-0.2978,-0.2978,-0.2979,-0.2987,-0.2987,-0.2987,-0.2954,-0.2953,-0.2952,-0.2951,-0.2909,-0.2908,-0.2908,0,0,0,0,0,0,0,0,0,0,0,0,0,-0.2933,-0.2918,-0.2978,-0.2966,-0.2965,-0.2987,-0.2987,-0.2987,-0.2954,-0.2953,-0.2952,-0.2951,-0.2909,-0.2908,-0.2907,-0.2924,0,0,-0.2905,-0.2905,0,0,0,0,0,0,0,0,-0.2932,-0.2935,-0.2967,-0.2966,-0.2966,-0.2971,-0.295,-0.2965,-0.2954,-0.2955,-0.2951,-0.295,-0.2927,-0.2925,-0.2925,-0.2922,-0.292,-0.2905,-0.2905,-0.2904,-0.2904,0,0,0,0,0,0,0,-0.2931,-0.2934,-0.2978,-0.2968,-0.2967,-0.2955,-0.2956,-0.2952,-0.2943,-0.2955,-0.2953,-0.2959,-0.2926,-0.2926,-0.2924,-0.292,-0.2905,-0.2905,-0.2904,-0.2904,-0.2925,-0.2926,0,0,0,0,0,0,-0.2939,-0.2934,-0.2978,-0.2979,-0.295,-0.2957,-0.2958,-0.2968,-0.2945,-0.2941,-0.296,-0.2958,-0.2928,-0.2925,-0.2922,-0.294,-0.2904,-0.2904,-0.2903,-0.2924,-0.2926,-0.2927,0,0,0,0,0,0,-0.2937,-0.2943,-0.2978,-0.2959,-0.2963,-0.296,-0.2971,-0.2969,-0.2966,-0.295,-0.2945,-0.296,-0.2927,-0.2923,-0.2922,-0.2938,-0.2903,-0.2903,-0.2923,-0.2925,-0.2926,-0.2976,0,0,0,0,0,0,-0.2936,-0.2942,-0.2946,-0.2959,-0.2964,-0.2997,-0.2972,-0.297,-0.2974,-0.297,-0.2949,-0.2944,-0.2926,-0.2924,-0.2922,-0.2936,-0.2902,-0.2922,-0.2924,-0.2926,-0.2973,-0.2979,-0.2984,0,0,0,0,0,-0.2933,-0.2948,-0.2947,-0.2952,-0.2972,-0.2998,-0.3,-0.2991,-0.2975,-0.2982,-0.2965,-0.2944,-0.2934,-0.2924,-0.2922,-0.2936,-0.2921,-0.2923,-0.2926,-0.2971,-0.2978,-0.2984,0,0,0,0,0,0,-0.2923,-0.2947,-0.2945,-0.2966,-0.2983,-0.2994,-0.2998,-0.2996,-0.2989,-0.298,-0.2957,-0.2952,-0.2959,-0.2943,-0.2933,-0.2949,-0.2925,-0.2927,-0.296,-0.2966,-0.2972,-0.2972,-0.2902,0,0,0,0,0,-0.2925,-0.2938,-0.2963,-0.2976,-0.2988,-0.2993,-0.3,-0.3,-0.3001,-0.2996,-0.2982,-0.2969,-0.2969,-0.2963,-0.2959,-0.2967,-0.295,-0.2975,-0.2981,-0.2986,-0.2985,-0.2973,-0.2978,-0.2934,-0.2934,-0.2934,0,0,-0.292,-0.2937,-0.2942,-0.2974,-0.2982,-0.3008,-0.2994,-0.3011,-0.3026,-0.2993,-0.2999,-0.299,-0.2977,-0.2987,-0.2988,-0.2972,-0.2993,-0.2989,-0.2993,-0.2989,-0.2976,-0.298,-0.2984,-0.2936,-0.2935,-0.2935,0,0,-0.2928,-0.2939,-0.2956,-0.2979,-0.3005,-0.3015,-0.3024,-0.3041,-0.304,-0.3054,-0.3035,-0.3035,-0.3029,-0.3025,-0.3022,-0.3057,-0.3026,-0.3056,-0.3079,-0.3068,-0.3071,-0.3073,-0.3069,-0.3071,-0.3054,-0.3054,-0.3054,0,-0.2921,-0.2947,-0.2964,-0.2995,-0.3011,-0.3022,-0.3047,-0.306,-0.3071,-0.3073,-0.306,-0.306,-0.3049,-0.3062,-0.3074,-0.3069,-0.3056,-0.3054,-0.3074,-0.3076,-0.3078,-0.3073,-0.3074,-0.3057,-0.3057,-0.3056,-0.3056,0,-0.2947,-0.2969,-0.2983,-0.3022,-0.3046,-0.3068,-0.3098,-0.3113,-0.3111,-0.3117,-0.3128,-0.3117,-0.3111,-0.3116,-0.3104,-0.3117,-0.3103,-0.3085,-0.3055,-0.3085,-0.3078,-0.3079,-0.3061,-0.306,-0.3059,-0.3058,0,0,-0.2919,-0.2987,-0.2988,-0.3008,-0.306,-0.3079,-0.3117,-0.3147,-0.3161,-0.3169,-0.318,-0.3186,-0.317,-0.3166,-0.3154,-0.3148,-0.3157,-0.3122,-0.312,-0.3115,-0.3135,-0.3119,-0.3118,-0.3137,-0.3137,-0.3137,-0.3129,0,-0.2926,-0.2978,-0.3013,-0.3053,-0.308,-0.3114,-0.3148,-0.3178,-0.3191,-0.3207,-0.3204,-0.3208,-0.3193,-0.3187,-0.3183,-0.3164,-0.3158,-0.316,-0.3109,-0.3108,-0.3087,-0.3118,-0.3045,-0.3032,-0.313,-0.313,-0.313,0,-0.293,-0.2964,-0.3007,-0.3065,-0.308,-0.3107,-0.315,-0.3182,-0.3219,-0.323,-0.3239,-0.3235,-0.324,-0.3215,-0.3197,-0.3197,-0.317,-0.3153,-0.3152,-0.3117,-0.3092,-0.3016,-0.3028,-0.3025,-0.313,-0.313,-0.313,0,-0.2884,-0.2953,-0.2979,-0.3002,-0.3077,-0.3095,-0.3127,-0.3176,-0.32,-0.3235,-0.3251,-0.3257,-0.3254,-0.3229,-0.3205,-0.3194,-0.3181,-0.3159,-0.3122,-0.312,-0.3039,-0.303,-0.3036,-0.3139,-0.3139,-0.3139,-0.3139,0,-0.2869,-0.2886,-0.2957,-0.2971,-0.2994,-0.3063,-0.309,-0.3126,-0.3184,-0.3208,-0.3245,-0.326,-0.3254,-0.325,-0.3217,-0.3179,-0.3188,-0.3132,-0.3118,-0.3056,-0.305,-0.3026,-0.302,-0.3139,-0.3139,-0.3139,-0.3139,0,-0.2802,-0.2857,-0.2884,-0.2955,-0.2971,-0.298,-0.3054,-0.3077,-0.3148,-0.3182,-0.3193,-0.3256,-0.3256,-0.3254,-0.3223,-0.3192,-0.3109,-0.3137,-0.3075,-0.3054,-0.301,-0.3009,-0.2926,-0.2848,-0.3092,-0.3091,-0.3091,0,-0.277,-0.2777,-0.2838,-0.2845,-0.2869,-0.2905,-0.2928,-0.3025,-0.3058,-0.317,-0.3175,-0.3221,-0.3238,-0.322,-0.3185,-0.3146,-0.3083,-0.3036,-0.3003,-0.3007,-0.2996,-0.2948,-0.2884,-0.2918,-0.2916,-0.2914,-0.2913,0,-0.2684,-0.2705,-0.2722,-0.274,-0.276,-0.279,-0.2838,-0.2872,-0.2989,-0.3049,-0.312,-0.3156,-0.3191,-0.3152,-0.3126,-0.3066,-0.2967,-0.3005,-0.3014,-0.2869,-0.281,-0.2727,-0.2938,-0.2901,-0.2902,-0.2903,-0.2903,-0.2904,-0.2593,-0.258,-0.2601,-0.2603,-0.2629,-0.2644,-0.2632,-0.2731,-0.2785,-0.2876,-0.2998,-0.3085,-0.3108,-0.3079,-0.3022,-0.2928,-0.2896,-0.2839,-0.2841,-0.2797,-0.2707,-0.2904,-0.285,-0.2851,-0.2852,-0.2853,-0.2853,0,-0.2462,-0.2458,-0.246,-0.2457,-0.243,-0.2493,-0.2536,-0.2516,-0.255,-0.2747,-0.2828,-0.3025,-0.2973,-0.2989,-0.2929,-0.2815,-0.2697,-0.2717,-0.2635,-0.2577,-0.2759,-0.2741,-0.2655,-0.2655,-0.2655,-0.2655,-0.2655,-0.2655,-0.239,-0.2336,-0.2336,-0.224,-0.224,-0.2157,-0.2152,-0.2168,-0.2272,-0.2457,-0.2694,-0.2913,-0.2928,-0.3056,-0.2899,-0.2756,-0.2636,-0.2539,-0.2525,-0.2688,-0.27,-0.2711,-0.2694,-0.26,-0.26,-0.2268,-0.2266,-0.2265]},{"header":{"parameterUnit":"m.s-1","parameterCategory":2,"la1":30.2991,"la2":30.254,"lo1":-89.0895,"lo2":-89.0444,"dy":0.0017,"dx":0.0017,"nx":28,"ny":28,"refTime":"2024-12-05T09:00:00:Z","depth":"0","parameterNumber":3,"parameterNumberName":"V-component_of_CURRENTS"},"data":[0,0,0,0,0,0,0,0,0,0,0,0,0,0,0,0,0,0,0,0,0,0,0,0,0,0,0,0,0,0,0,0,0,0,0,0,0,0,0,0,0,0,0,0,0,0,0,0,0,0,0,0,0,0,0,0,0,0,-0.0525,-0.0524,0,-0.0427,-0.0426,-0.0425,-0.0363,-0.0363,-0.0362,-0.0362,-0.0242,-0.0239,-0.0237,0,0,0,0,0,0,0,0,0,0,0,0,0,-0.0596,-0.0596,-0.0525,-0.0524,-0.0523,-0.0428,-0.0426,-0.0425,-0.0363,-0.0363,-0.0362,-0.0362,-0.0243,-0.024,-0.0236,0,0,0,0,0,0,0,0,0,0,0,0,0,-0.0538,-0.0596,-0.0525,-0.0481,-0.0477,-0.0428,-0.0426,-0.0424,-0.0363,-0.0363,-0.0362,-0.0362,-0.0244,-0.024,-0.0236,-0.0216,0,0,-0.0222,-0.022,0,0,0,0,0,0,0,0,-0.0541,-0.0535,-0.0489,-0.0484,-0.0479,-0.0408,-0.0407,-0.0354,-0.0363,-0.0405,-0.0362,-0.0362,-0.0297,-0.0288,-0.0269,-0.0211,-0.0206,-0.0222,-0.0219,-0.0217,-0.0216,0,0,0,0,0,0,0,-0.0546,-0.0539,-0.0485,-0.0488,-0.0482,-0.0445,-0.0437,-0.0397,-0.0353,-0.0401,-0.0397,-0.0388,-0.0293,-0.0274,-0.0266,-0.0204,-0.0222,-0.0218,-0.0215,-0.0214,-0.0112,-0.0112,0,0,0,0,0,0,-0.0564,-0.0543,-0.0489,-0.0483,-0.0511,-0.0445,-0.0435,-0.043,-0.0354,-0.0342,-0.0388,-0.0385,-0.0281,-0.0271,-0.0261,-0.0231,-0.0217,-0.0213,-0.0211,-0.0112,-0.0112,-0.0112,0,0,0,0,0,0,-0.0566,-0.056,-0.0492,-0.0511,-0.05,-0.0445,-0.0439,-0.0428,-0.0409,-0.0344,-0.0332,-0.038,-0.0281,-0.0268,-0.0226,-0.0226,-0.0211,-0.0207,-0.0112,-0.0112,-0.0112,-0.0171,0,0,0,0,0,0,-0.0568,-0.0561,-0.0565,-0.0513,-0.05,-0.047,-0.0439,-0.0427,-0.0405,-0.04,-0.0333,-0.0321,-0.0279,-0.0233,-0.0221,-0.0219,-0.0204,-0.0112,-0.0112,-0.0112,-0.0169,-0.0173,-0.0176,0,0,0,0,0,-0.0571,-0.0579,-0.0566,-0.0559,-0.0506,-0.047,-0.0461,-0.0418,-0.0405,-0.0399,-0.0352,-0.0323,-0.0224,-0.0229,-0.0216,-0.0212,-0.0112,-0.0112,-0.0112,-0.0168,-0.0172,-0.0176,0,0,0,0,0,0,-0.061,-0.0572,-0.0556,-0.0552,-0.0517,-0.046,-0.0453,-0.0425,-0.0384,-0.0381,-0.032,-0.0305,-0.0269,-0.0234,-0.0241,-0.0183,-0.0164,-0.0162,-0.0211,-0.0215,-0.0218,-0.0235,-0.02,0,0,0,0,0,-0.0623,-0.0621,-0.0574,-0.0572,-0.0558,-0.0508,-0.0489,-0.0462,-0.0418,-0.0399,-0.0351,-0.0302,-0.0258,-0.0232,-0.019,-0.0158,-0.012,-0.0147,-0.0151,-0.0154,-0.0159,-0.0104,-0.0103,-0.0112,-0.0112,-0.0112,0,0,-0.0637,-0.0617,-0.0615,-0.058,-0.0551,-0.0537,-0.0496,-0.0474,-0.0457,-0.0393,-0.036,-0.0314,-0.0253,-0.0216,-0.0197,-0.0186,-0.0132,-0.0154,-0.0157,-0.016,-0.0103,-0.0103,-0.0102,-0.0112,-0.0112,-0.0112,0,0,-0.067,-0.0648,-0.0659,-0.0634,-0.0599,-0.0564,-0.0563,-0.0509,-0.0481,-0.0444,-0.0394,-0.0349,-0.0284,-0.0236,-0.0205,-0.0202,-0.0155,-0.0192,-0.0219,-0.0166,-0.0165,-0.0163,-0.0116,-0.011,-0.0191,-0.0191,-0.0191,0,-0.0691,-0.0696,-0.0656,-0.0657,-0.0642,-0.0582,-0.0586,-0.0546,-0.0485,-0.0461,-0.0444,-0.034,-0.0292,-0.0237,-0.0237,-0.021,-0.0177,-0.0209,-0.0171,-0.0169,-0.0166,-0.0118,-0.0111,-0.0194,-0.0194,-0.0193,-0.0193,0,-0.0729,-0.0731,-0.0734,-0.0717,-0.0693,-0.0687,-0.063,-0.0602,-0.0562,-0.0517,-0.0458,-0.0385,-0.0323,-0.0301,-0.0267,-0.0225,-0.0206,-0.0185,-0.0164,-0.0169,-0.0118,-0.0109,-0.0198,-0.0197,-0.0196,-0.0196,0,0,-0.0782,-0.0767,-0.0768,-0.0774,-0.0727,-0.0714,-0.0683,-0.0636,-0.0617,-0.0547,-0.0513,-0.0432,-0.0388,-0.035,-0.0295,-0.0249,-0.0202,-0.0218,-0.0214,-0.0179,-0.0089,-0.0044,-0.0029,-0.0177,-0.0175,-0.0175,-0.0061,0,-0.0825,-0.0856,-0.0823,-0.0839,-0.0849,-0.0784,-0.076,-0.0706,-0.0648,-0.0597,-0.0507,-0.0455,-0.0406,-0.0379,-0.0322,-0.023,-0.0182,-0.0235,-0.0083,-0.0079,-0.0043,-0.0018,0.0004,0.0109,-0.0052,-0.0051,-0.005,0,-0.0874,-0.0888,-0.0921,-0.0909,-0.0905,-0.0898,-0.085,-0.0819,-0.0724,-0.0678,-0.06,-0.0525,-0.0434,-0.04,-0.0242,-0.028,-0.0195,-0.0125,-0.0118,-0.005,-0.0016,0.0091,0.0132,0.0306,-0.0036,-0.0037,-0.0038,0,-0.0945,-0.0953,-0.0986,-0.0982,-0.0956,-0.0952,-0.0928,-0.085,-0.0825,-0.0727,-0.0696,-0.057,-0.051,-0.0383,-0.0226,-0.0236,-0.0055,-0.0045,0.0078,0.0082,0.0145,0.0152,0.0367,0.0058,0.0058,0.0058,0.0057,0,-0.1009,-0.1032,-0.1027,-0.1047,-0.1078,-0.1025,-0.1028,-0.0981,-0.0909,-0.088,-0.0748,-0.0697,-0.0506,-0.0373,-0.0236,-0.0042,-0.0054,0.0081,0.0119,0.0125,0.0129,0.0319,0.0393,0.0062,0.0061,0.006,0.0059,0,-0.1082,-0.1077,-0.1119,-0.1116,-0.1118,-0.1139,-0.1113,-0.1111,-0.1026,-0.0983,-0.0955,-0.0789,-0.0606,-0.0403,-0.0186,-0.0056,0.0227,0.0189,0.0182,0.0218,0.0486,0.0554,0.0796,0.0848,0.0343,0.0344,0.0346,0,-0.1124,-0.1154,-0.1187,-0.122,-0.1225,-0.1242,-0.1254,-0.1185,-0.1173,-0.1037,-0.1025,-0.0836,-0.0689,-0.0337,-0.0073,0.0199,0.0314,0.0368,0.0358,0.0519,0.0624,0.0665,0.0692,0.0419,0.0421,0.0423,0.0424,0,-0.12,-0.121,-0.1247,-0.1322,-0.1357,-0.1385,-0.139,-0.1398,-0.1301,-0.1239,-0.1123,-0.0989,-0.0622,-0.0287,0.0081,0.0238,0.0492,0.041,0.0589,0.0717,0.0765,0.0826,0.0321,0.0439,0.0438,0.0437,0.0436,0.0435,-0.125,-0.1301,-0.1353,-0.142,-0.1469,-0.1514,-0.1541,-0.152,-0.1492,-0.1373,-0.1219,-0.0978,-0.0454,0.0077,0.0254,0.0676,0.0634,0.0802,0.0876,0.0905,0.0954,0.0478,0.0631,0.063,0.063,0.063,0.0629,0,-0.1311,-0.1366,-0.1444,-0.1522,-0.1596,-0.1589,-0.162,-0.1623,-0.16,-0.1424,-0.1269,-0.0668,-0.0167,0.0306,0.0927,0.1147,0.1148,0.1255,0.1326,0.1329,0.0932,0.0935,0.1146,0.1146,0.1146,0.1146,0.1145,0.1145,-0.1345,-0.1437,-0.148,-0.1611,-0.1666,-0.1738,-0.1759,-0.1739,-0.1631,-0.1352,-0.1004,-0.0723,0.0064,0.11,0.1629,0.1642,0.1785,0.1781,0.1851,0.1601,0.1564,0.1528,0.1551,0.1888,0.1889,0.2199,0.2202,0.2205]}],[{"header":{"parameterUnit":"m.s-1","parameterCategory":2,"la1":30.2991,"la2":30.254,"lo1":-89.0895,"lo2":-89.0444,"dy":0.0017,"dx":0.0017,"nx":28,"ny":28,"refTime":"2024-12-05T09:00:00:Z","depth":"2","parameterNumber":2,"parameterNumberName":"U-component_of_CURRENTS"},"data":[0,0,0,0,0,0,0,0,0,0,0,0,0,0,0,0,0,0,0,0,0,0,0,0,0,0,0,0,0,0,0,0,0,0,0,0,0,0,0,0,0,0,0,0,0,0,0,0,0,0,0,0,0,0,0,0,0,0,-0.292,-0.292,0,-0.293,-0.293,-0.293,-0.2899,-0.2898,-0.2898,-0.2897,-0.2857,-0.2857,-0.2856,0,0,0,0,0,0,0,0,0,0,0,0,0,-0.2859,-0.286,-0.292,-0.292,-0.2921,-0.293,-0.293,-0.293,-0.2899,-0.2898,-0.2897,-0.2897,-0.2857,-0.2857,-0.2856,0,0,0,0,0,0,0,0,0,0,0,0,0,-0.2876,-0.2861,-0.292,-0.2909,-0.2908,-0.293,-0.293,-0.293,-0.2899,-0.2898,-0.2897,-0.2896,-0.2857,-0.2857,-0.2856,-0.2872,0,0,-0.2854,-0.2854,0,0,0,0,0,0,0,0,-0.2875,-0.2878,-0.291,-0.291,-0.2909,-0.2915,-0.2894,-0.2909,-0.2899,-0.2899,-0.2897,-0.2896,-0.2875,-0.2873,-0.2873,-0.287,-0.2868,-0.2854,-0.2854,-0.2853,-0.2853,0,0,0,0,0,0,0,-0.2874,-0.2877,-0.2921,-0.2911,-0.291,-0.2899,-0.29,-0.2897,-0.2889,-0.2899,-0.2898,-0.2904,-0.2873,-0.2874,-0.2872,-0.2867,-0.2854,-0.2853,-0.2853,-0.2853,-0.2875,-0.2876,0,0,0,0,0,0,-0.2881,-0.2877,-0.292,-0.2921,-0.2893,-0.2901,-0.2902,-0.2911,-0.289,-0.2887,-0.2905,-0.2903,-0.2875,-0.2872,-0.287,-0.2889,-0.2853,-0.2853,-0.2852,-0.2874,-0.2876,-0.2877,0,0,0,0,0,0,-0.288,-0.2885,-0.292,-0.2901,-0.2905,-0.2903,-0.2914,-0.2912,-0.2911,-0.2896,-0.2891,-0.2906,-0.2874,-0.2871,-0.2871,-0.2887,-0.2852,-0.2852,-0.2873,-0.2875,-0.2876,-0.2926,0,0,0,0,0,0,-0.2878,-0.2885,-0.2889,-0.2902,-0.2907,-0.2939,-0.2915,-0.2913,-0.2919,-0.2915,-0.2895,-0.2891,-0.2873,-0.2872,-0.287,-0.2886,-0.2851,-0.2872,-0.2874,-0.2876,-0.2923,-0.2929,-0.2934,0,0,0,0,0,-0.2876,-0.2891,-0.289,-0.2895,-0.2915,-0.2941,-0.2942,-0.2934,-0.292,-0.2927,-0.2912,-0.2891,-0.2883,-0.2873,-0.287,-0.2886,-0.2871,-0.2873,-0.2876,-0.2921,-0.2928,-0.2934,0,0,0,0,0,0,-0.2866,-0.289,-0.2888,-0.2909,-0.2926,-0.2936,-0.2942,-0.294,-0.2934,-0.2926,-0.2904,-0.2899,-0.2907,-0.2892,-0.2881,-0.2899,-0.2874,-0.2876,-0.2909,-0.2916,-0.2922,-0.2922,-0.2851,0,0,0,0,0,-0.2868,-0.2881,-0.2906,-0.2919,-0.2931,-0.2937,-0.2943,-0.2944,-0.2945,-0.2941,-0.2929,-0.2917,-0.2917,-0.2912,-0.2908,-0.2917,-0.29,-0.2926,-0.2931,-0.2936,-0.2935,-0.2924,-0.2928,-0.2884,-0.2884,-0.2884,0,0,-0.2864,-0.2881,-0.2886,-0.2917,-0.2925,-0.2951,-0.2937,-0.2955,-0.2971,-0.2939,-0.2946,-0.2938,-0.2925,-0.2936,-0.2937,-0.2922,-0.2943,-0.2939,-0.2943,-0.294,-0.2927,-0.2931,-0.2935,-0.2886,-0.2885,-0.2885,0,0,-0.2872,-0.2883,-0.29,-0.2922,-0.2949,-0.2959,-0.2968,-0.2985,-0.2985,-0.3,-0.2982,-0.2983,-0.2978,-0.2974,-0.2971,-0.3007,-0.2976,-0.3006,-0.3029,-0.3019,-0.3022,-0.3025,-0.3021,-0.3023,-0.3005,-0.3005,-0.3005,0,-0.2866,-0.2891,-0.2908,-0.2938,-0.2954,-0.2966,-0.2991,-0.3004,-0.3016,-0.3019,-0.3007,-0.3008,-0.2998,-0.3011,-0.3023,-0.3019,-0.3007,-0.3004,-0.3025,-0.3027,-0.3029,-0.3025,-0.3026,-0.3007,-0.3007,-0.3007,-0.3007,0,-0.2891,-0.2913,-0.2927,-0.2965,-0.2989,-0.3012,-0.3041,-0.3057,-0.3057,-0.3063,-0.3075,-0.3065,-0.306,-0.3066,-0.3054,-0.3068,-0.3054,-0.3037,-0.3007,-0.3037,-0.303,-0.3031,-0.3011,-0.301,-0.301,-0.3009,0,0,-0.2864,-0.2931,-0.2932,-0.2952,-0.3003,-0.3022,-0.3061,-0.3091,-0.3105,-0.3115,-0.3127,-0.3134,-0.312,-0.3116,-0.3104,-0.3099,-0.3108,-0.3074,-0.3072,-0.3067,-0.3088,-0.3071,-0.3069,-0.3089,-0.3089,-0.3089,-0.3083,0,-0.2871,-0.2922,-0.2957,-0.2996,-0.3023,-0.3057,-0.3091,-0.3121,-0.3136,-0.3153,-0.3151,-0.3157,-0.3142,-0.3137,-0.3133,-0.3115,-0.311,-0.3112,-0.3062,-0.3061,-0.3039,-0.3069,-0.2763,-0.2731,-0.3083,-0.3083,-0.3083,0,-0.2875,-0.2909,-0.2951,-0.3008,-0.3023,-0.3051,-0.3094,-0.3126,-0.3164,-0.3176,-0.3186,-0.3183,-0.319,-0.3165,-0.3149,-0.3149,-0.3122,-0.3106,-0.3105,-0.3069,-0.3044,-0.2755,-0.2718,-0.3083,-0.3083,-0.3083,-0.3083,0,-0.283,-0.2898,-0.2924,-0.2947,-0.302,-0.3039,-0.3071,-0.3121,-0.3146,-0.3182,-0.3199,-0.3206,-0.3204,-0.318,-0.3157,-0.3147,-0.3135,-0.3113,-0.3075,-0.3073,-0.2793,-0.2767,-0.3094,-0.3094,-0.3094,-0.3094,-0.3094,0,-0.2815,-0.2832,-0.2903,-0.2917,-0.2941,-0.3008,-0.3036,-0.3073,-0.3131,-0.3156,-0.3194,-0.3209,-0.3205,-0.3201,-0.317,-0.3132,-0.3142,-0.3085,-0.3071,-0.2806,-0.2782,-0.3068,-0.3065,-0.3093,-0.3093,-0.3094,-0.3094,0,-0.275,-0.2804,-0.2831,-0.2902,-0.2918,-0.2929,-0.3002,-0.3025,-0.3097,-0.3131,-0.3143,-0.3206,-0.3207,-0.3206,-0.3176,-0.3145,-0.3111,-0.3091,-0.2795,-0.2748,-0.3053,-0.3053,-0.3045,-0.3045,-0.3044,-0.3044,-0.3043,0,-0.2719,-0.2726,-0.2787,-0.2794,-0.2819,-0.2856,-0.2879,-0.2975,-0.3008,-0.3119,-0.3124,-0.317,-0.318,-0.3162,-0.307,-0.3015,-0.3098,-0.2745,-0.268,-0.3061,-0.3048,-0.3049,-0.305,-0.232,-0.2314,-0.2309,-0.2305,0,-0.2635,-0.2656,-0.2673,-0.2692,-0.2713,-0.2742,-0.2791,-0.2824,-0.294,-0.2992,-0.3061,-0.3089,-0.307,-0.288,-0.2831,-0.2754,-0.2734,-0.2645,-0.3077,-0.2413,-0.2385,-0.2371,-0.2393,-0.2259,-0.2263,-0.2267,-0.2269,-0.2271,-0.2547,-0.2534,-0.2555,-0.2557,-0.2584,-0.2599,-0.2586,-0.2656,-0.2699,-0.2719,-0.2865,-0.2801,-0.2759,-0.2533,-0.2418,-0.2312,-0.2513,-0.2374,-0.2385,-0.2402,-0.2352,-0.2329,-0.2182,-0.2186,-0.2189,-0.2192,-0.2195,0,-0.2408,-0.2415,-0.2417,-0.2414,-0.2377,-0.245,-0.2491,-0.2428,-0.2415,-0.2468,-0.2481,-0.2213,-0.2094,-0.2077,-0.1838,-0.1833,-0.1754,-0.176,-0.162,-0.1666,-0.1707,-0.1618,-0.1255,-0.1252,-0.125,-0.1248,0,0,-0.2336,-0.2278,-0.2278,-0.2179,-0.2188,-0.2086,-0.2079,-0.2013,-0.1991,-0.1899,-0.1853,-0.1962,-0.2017,-0.1627,-0.1535,-0.1367,-0.1502,-0.129,-0.2034,-0.1914,-0.1952,-0.2043,-0.1958,0,0,0,0,0]},{"header":{"parameterUnit":"m.s-1","parameterCategory":2,"la1":30.2991,"la2":30.254,"lo1":-89.0895,"lo2":-89.0444,"dy":0.0017,"dx":0.0017,"nx":28,"ny":28,"refTime":"2024-12-05T09:00:00:Z","depth":"2","parameterNumber":3,"parameterNumberName":"V-component_of_CURRENTS"},"data":[0,0,0,0,0,0,0,0,0,0,0,0,0,0,0,0,0,0,0,0,0,0,0,0,0,0,0,0,0,0,0,0,0,0,0,0,0,0,0,0,0,0,0,0,0,0,0,0,0,0,0,0,0,0,0,0,0,0,-0.0463,-0.0462,0,-0.0366,-0.0365,-0.0364,-0.0303,-0.0303,-0.0303,-0.0303,-0.0184,-0.0182,-0.0179,0,0,0,0,0,0,0,0,0,0,0,0,0,-0.0533,-0.0532,-0.0463,-0.0462,-0.0461,-0.0367,-0.0365,-0.0364,-0.0303,-0.0303,-0.0303,-0.0302,-0.0185,-0.0182,-0.0178,0,0,0,0,0,0,0,0,0,0,0,0,0,-0.0475,-0.0532,-0.0463,-0.042,-0.0415,-0.0367,-0.0365,-0.0363,-0.0303,-0.0303,-0.0303,-0.0302,-0.0186,-0.0182,-0.0178,-0.0158,0,0,-0.0164,-0.0163,0,0,0,0,0,0,0,0,-0.0479,-0.0473,-0.0428,-0.0423,-0.0418,-0.0348,-0.0346,-0.0294,-0.0303,-0.0345,-0.0303,-0.0302,-0.0238,-0.0229,-0.0211,-0.0152,-0.0147,-0.0164,-0.0161,-0.016,-0.0158,0,0,0,0,0,0,0,-0.0483,-0.0476,-0.0424,-0.0427,-0.042,-0.0384,-0.0376,-0.0336,-0.0293,-0.0341,-0.0337,-0.0328,-0.0235,-0.0215,-0.0207,-0.0146,-0.0164,-0.016,-0.0158,-0.0156,-0.0056,-0.0056,0,0,0,0,0,0,-0.0501,-0.048,-0.0427,-0.0421,-0.0449,-0.0384,-0.0375,-0.037,-0.0294,-0.0283,-0.0328,-0.0326,-0.0223,-0.0213,-0.0203,-0.0173,-0.016,-0.0155,-0.0153,-0.0056,-0.0056,-0.0056,0,0,0,0,0,0,-0.0502,-0.0497,-0.0431,-0.0449,-0.0438,-0.0384,-0.0378,-0.0368,-0.0349,-0.0285,-0.0273,-0.0321,-0.0222,-0.0209,-0.0168,-0.0168,-0.0153,-0.015,-0.0056,-0.0056,-0.0056,-0.0115,0,0,0,0,0,0,-0.0505,-0.0498,-0.0502,-0.045,-0.0438,-0.0409,-0.0378,-0.0366,-0.0345,-0.034,-0.0274,-0.0263,-0.0221,-0.0175,-0.0164,-0.0162,-0.0146,-0.0056,-0.0056,-0.0056,-0.0113,-0.0117,-0.012,0,0,0,0,0,-0.0508,-0.0517,-0.0503,-0.0497,-0.0445,-0.0409,-0.0399,-0.0358,-0.0345,-0.034,-0.0294,-0.0265,-0.0166,-0.0171,-0.0158,-0.0155,-0.0056,-0.0056,-0.0056,-0.0112,-0.0116,-0.012,0,0,0,0,0,0,-0.0547,-0.051,-0.0494,-0.0491,-0.0456,-0.0399,-0.0393,-0.0365,-0.0324,-0.0322,-0.0262,-0.0247,-0.0211,-0.0176,-0.0183,-0.0126,-0.0107,-0.0105,-0.0154,-0.0158,-0.0162,-0.0179,-0.0142,0,0,0,0,0,-0.056,-0.0558,-0.0512,-0.051,-0.0497,-0.0447,-0.0429,-0.0402,-0.0358,-0.034,-0.0293,-0.0244,-0.02,-0.0175,-0.0133,-0.0101,-0.0064,-0.0091,-0.0095,-0.0098,-0.0103,-0.0048,-0.0047,-0.0055,-0.0055,-0.0055,0,0,-0.0575,-0.0554,-0.0553,-0.0519,-0.049,-0.0476,-0.0435,-0.0414,-0.0398,-0.0334,-0.0302,-0.0256,-0.0196,-0.0159,-0.014,-0.013,-0.0076,-0.0098,-0.0102,-0.0104,-0.0048,-0.0047,-0.0046,-0.0055,-0.0055,-0.0055,0,0,-0.0608,-0.0586,-0.0598,-0.0573,-0.0538,-0.0504,-0.0503,-0.045,-0.0422,-0.0386,-0.0336,-0.0292,-0.0227,-0.018,-0.0149,-0.0147,-0.0099,-0.0137,-0.0164,-0.0111,-0.011,-0.0109,-0.0062,-0.0056,-0.0136,-0.0136,-0.0136,0,-0.063,-0.0634,-0.0594,-0.0596,-0.0581,-0.0522,-0.0526,-0.0487,-0.0427,-0.0403,-0.0386,-0.0284,-0.0236,-0.0181,-0.0182,-0.0155,-0.0121,-0.0154,-0.0117,-0.0114,-0.0112,-0.0064,-0.0057,-0.0139,-0.0139,-0.0139,-0.0138,0,-0.0667,-0.0669,-0.0673,-0.0656,-0.0633,-0.0627,-0.057,-0.0543,-0.0504,-0.0459,-0.0401,-0.0329,-0.0268,-0.0246,-0.0213,-0.0171,-0.0151,-0.0131,-0.0109,-0.0115,-0.0064,-0.0055,-0.0143,-0.0142,-0.0141,-0.0141,0,0,-0.0721,-0.0706,-0.0707,-0.0713,-0.0666,-0.0654,-0.0623,-0.0577,-0.0558,-0.049,-0.0456,-0.0376,-0.0333,-0.0295,-0.0241,-0.0195,-0.0149,-0.0164,-0.016,-0.0125,-0.0036,0.0007,0.0021,-0.0123,-0.0122,-0.0121,-0.0008,0,-0.0765,-0.0795,-0.0762,-0.0778,-0.0788,-0.0723,-0.07,-0.0647,-0.0589,-0.0539,-0.045,-0.0399,-0.035,-0.0324,-0.0268,-0.0176,-0.0128,-0.0181,-0.0029,-0.0025,0.0009,0.0032,0.0007,0.0108,0.0001,0.0002,0.0004,0,-0.0813,-0.0827,-0.0859,-0.0847,-0.0843,-0.0837,-0.079,-0.0759,-0.0665,-0.0619,-0.0542,-0.0468,-0.0378,-0.0345,-0.0188,-0.0226,-0.0142,-0.0072,-0.0065,0.0001,0.0035,0.0099,0.0129,0.0019,0.0018,0.0016,0.0015,0,-0.0884,-0.0892,-0.0925,-0.0921,-0.0894,-0.089,-0.0867,-0.0789,-0.0764,-0.0668,-0.0637,-0.0512,-0.0453,-0.0327,-0.0173,-0.0182,-0.0002,0.0009,0.0128,0.0132,0.0155,0.0159,0.0111,0.0111,0.011,0.011,0.011,0,-0.0947,-0.0971,-0.0965,-0.0985,-0.1015,-0.0963,-0.0967,-0.0919,-0.0848,-0.0819,-0.0689,-0.0637,-0.0449,-0.0317,-0.0182,0.001,-0.0001,0.0131,0.0169,0.0134,0.0135,0.009,0.0086,0.0114,0.0113,0.0113,0.0112,0,-0.102,-0.1016,-0.1057,-0.1053,-0.1055,-0.1077,-0.1051,-0.1048,-0.0964,-0.092,-0.0893,-0.0728,-0.0547,-0.0347,-0.0132,-0.0004,0.0173,0.0239,0.0184,0.0215,0.0271,0.0263,0.0385,0.0387,0.0389,0.0391,0.0393,0,-0.1062,-0.1092,-0.1124,-0.1157,-0.1162,-0.1179,-0.119,-0.1122,-0.1109,-0.0974,-0.0962,-0.0775,-0.0627,-0.028,-0.0025,0.0242,0.0231,0.0365,0.0348,0.0277,0.0302,0.029,0.0279,0.0354,0.0355,0.0356,0.0357,0,-0.1137,-0.1147,-0.1183,-0.1259,-0.1293,-0.1319,-0.1324,-0.1331,-0.1234,-0.1169,-0.1053,-0.092,-0.0564,-0.026,0.01,0.0249,0.0325,0.0392,0.0348,0.0286,0.0257,0.0278,0.0267,0.0365,0.0364,0.0363,0.0363,0.0363,-0.1187,-0.1238,-0.1289,-0.1355,-0.1403,-0.1447,-0.1473,-0.1431,-0.1395,-0.1248,-0.1125,-0.0875,-0.0569,-0.005,0.0194,0.0423,0.0415,0.0477,0.047,0.0464,0.0437,0.0414,0.0546,0.0546,0.0546,0.0546,0.0546,0,-0.1237,-0.1302,-0.1379,-0.1456,-0.1513,-0.1521,-0.155,-0.151,-0.1453,-0.127,-0.1099,-0.0737,-0.0374,-0.0064,0.0309,0.0529,0.0501,0.0557,0.0478,0.047,0.0463,0.0432,0.0542,0.0542,0.0543,0.0543,0,0,-0.1268,-0.1353,-0.1395,-0.1516,-0.158,-0.1623,-0.1642,-0.1548,-0.1411,-0.1206,-0.1006,-0.0722,-0.0357,-0.0092,0.0184,0.0371,0.0357,0.0385,0.0369,0.0235,0.0224,0.0402,0.0346,0,0,0,0,0]}],[{"header":{"parameterUnit":"m.s-1","parameterCategory":2,"la1":30.2991,"la2":30.254,"lo1":-89.0895,"lo2":-89.0444,"dy":0.0017,"dx":0.0017,"nx":28,"ny":28,"refTime":"2024-12-05T09:00:00:Z","depth":"4","parameterNumber":2,"parameterNumberName":"U-component_of_CURRENTS"},"data":[0,0,0,0,0,0,0,0,0,0,0,0,0,0,0,0,0,0,0,0,0,0,0,0,0,0,0,0,0,0,0,0,0,0,0,0,0,0,0,0,0,0,0,0,0,0,0,0,0,0,0,0,0,0,0,0,0,0,-0.1874,-0.1874,0,-0.1937,-0.1937,-0.1938,-0.1978,-0.1979,-0.1979,-0.1979,-0.204,-0.2041,-0.2042,0,0,0,0,0,0,0,0,0,0,0,0,0,-0.1785,-0.1786,-0.1874,-0.1875,-0.1876,-0.1937,-0.1937,-0.1938,-0.1978,-0.1979,-0.1979,-0.198,-0.2039,-0.2041,-0.2042,0,0,0,0,0,0,0,0,0,0,0,0,0,-0.1832,-0.1787,-0.1873,-0.1904,-0.1908,-0.1936,-0.1937,-0.1938,-0.1978,-0.1979,-0.1979,-0.198,-0.2039,-0.2041,-0.2042,-0.2041,0,0,-0.2048,-0.2049,0,0,0,0,0,0,0,0,-0.1829,-0.1835,-0.1899,-0.1902,-0.1906,-0.1952,-0.1928,-0.1973,-0.1978,-0.195,-0.198,-0.198,-0.2011,-0.2015,-0.2023,-0.2044,-0.2047,-0.2048,-0.2049,-0.205,-0.2051,0,0,0,0,0,0,0,-0.1826,-0.1832,-0.1897,-0.19,-0.1904,-0.1914,-0.1921,-0.1937,-0.1974,-0.1952,-0.1956,-0.1965,-0.2013,-0.2021,-0.2025,-0.2048,-0.2048,-0.205,-0.2051,-0.2052,-0.2155,-0.2157,0,0,0,0,0,0,-0.1821,-0.1829,-0.1895,-0.1899,-0.187,-0.1915,-0.1923,-0.1935,-0.1975,-0.1982,-0.1965,-0.1967,-0.2018,-0.2022,-0.2027,-0.2111,-0.205,-0.2052,-0.2053,-0.2154,-0.2156,-0.2157,0,0,0,0,0,0,-0.1819,-0.1826,-0.1892,-0.1867,-0.1876,-0.1916,-0.1929,-0.1936,-0.1977,-0.1984,-0.1991,-0.2003,-0.2018,-0.2024,-0.2072,-0.211,-0.2053,-0.2054,-0.2152,-0.2154,-0.2156,-0.2226,0,0,0,0,0,0,-0.1816,-0.1825,-0.1847,-0.1866,-0.1877,-0.1932,-0.1929,-0.1937,-0.1981,-0.1985,-0.2019,-0.2023,-0.2019,-0.2069,-0.2074,-0.2112,-0.2056,-0.215,-0.2153,-0.2156,-0.2221,-0.223,-0.2238,0,0,0,0,0,-0.1813,-0.1836,-0.1848,-0.1857,-0.1901,-0.1934,-0.1941,-0.197,-0.1983,-0.2008,-0.2032,-0.2024,-0.2092,-0.2072,-0.2077,-0.2117,-0.2148,-0.2152,-0.2155,-0.2218,-0.2229,-0.2238,0,0,0,0,0,0,-0.1811,-0.1843,-0.1856,-0.189,-0.1921,-0.1942,-0.1972,-0.1989,-0.2028,-0.2042,-0.2045,-0.2052,-0.2107,-0.2103,-0.2081,-0.2155,-0.2119,-0.2123,-0.2164,-0.2175,-0.2183,-0.2174,-0.2057,0,0,0,0,0,-0.182,-0.1847,-0.1876,-0.1907,-0.1926,-0.1955,-0.1978,-0.1999,-0.2029,-0.2048,-0.2073,-0.2097,-0.2121,-0.2141,-0.2159,-0.2202,-0.218,-0.223,-0.2238,-0.2245,-0.2242,-0.2238,-0.2246,-0.217,-0.217,-0.2169,0,0,-0.1828,-0.185,-0.1867,-0.1909,-0.1936,-0.1972,-0.1972,-0.2018,-0.2055,-0.2047,-0.2116,-0.2131,-0.2139,-0.2186,-0.2211,-0.2192,-0.2259,-0.225,-0.2256,-0.2248,-0.2243,-0.225,-0.2256,-0.2172,-0.2172,-0.2171,0,0,-0.1847,-0.1879,-0.1906,-0.1938,-0.1987,-0.2006,-0.2027,-0.2071,-0.2103,-0.2161,-0.2165,-0.2203,-0.2247,-0.2257,-0.2265,-0.233,-0.2302,-0.2345,-0.2382,-0.238,-0.2386,-0.239,-0.2382,-0.2385,-0.2349,-0.235,-0.235,0,-0.1858,-0.1893,-0.1921,-0.1957,-0.1989,-0.2025,-0.2065,-0.2101,-0.2159,-0.2185,-0.2195,-0.2261,-0.2276,-0.2317,-0.2344,-0.2349,-0.2338,-0.2344,-0.2389,-0.2394,-0.2397,-0.2387,-0.239,-0.2353,-0.2353,-0.2353,-0.2352,0,-0.1886,-0.1931,-0.1953,-0.2008,-0.2047,-0.209,-0.2139,-0.2189,-0.2232,-0.226,-0.2325,-0.2345,-0.2377,-0.2397,-0.2393,-0.2434,-0.2416,-0.2399,-0.236,-0.2409,-0.2395,-0.2397,-0.2359,-0.2357,-0.2356,-0.2355,0,0,-0.1862,-0.1955,-0.1965,-0.2003,-0.2081,-0.211,-0.2184,-0.2245,-0.2289,-0.2348,-0.2396,-0.2448,-0.2456,-0.2466,-0.2471,-0.2477,-0.2504,-0.2457,-0.2455,-0.2442,-0.2497,-0.2345,-0.2332,-0.2495,-0.2496,-0.2496,-0.2481,0,-0.1877,-0.1946,-0.1994,-0.2069,-0.2107,-0.2172,-0.2233,-0.2297,-0.235,-0.2407,-0.2437,-0.2484,-0.2483,-0.2505,-0.2515,-0.2507,-0.251,-0.251,-0.2458,-0.2456,-0.2309,-0.2329,-0.2498,-0.2482,-0.2482,-0.2482,-0.2482,0,-0.1877,-0.1927,-0.2002,-0.2098,-0.2123,-0.2181,-0.2274,-0.2332,-0.2414,-0.2456,-0.2504,-0.2525,-0.2563,-0.2547,-0.2552,-0.2553,-0.2533,-0.2518,-0.2517,-0.2346,-0.2305,-0.2421,-0.2484,-0.2484,-0.2484,-0.2484,-0.2484,0,-0.182,-0.1927,-0.1988,-0.2023,-0.2139,-0.2194,-0.2258,-0.2349,-0.2398,-0.2484,-0.252,-0.2564,-0.2589,-0.2577,-0.2561,-0.2561,-0.2545,-0.2536,-0.2378,-0.2368,-0.248,-0.2475,-0.2526,-0.2526,-0.2526,-0.2526,-0.2526,0,-0.1792,-0.1844,-0.1975,-0.2007,-0.2082,-0.2175,-0.2257,-0.2324,-0.2419,-0.2458,-0.2537,-0.2554,-0.2597,-0.2595,-0.257,-0.2469,-0.2551,-0.2375,-0.2347,-0.2512,-0.251,-0.2481,-0.2476,-0.2525,-0.2525,-0.2525,-0.2526,0,-0.1709,-0.1801,-0.1875,-0.2012,-0.2057,-0.2109,-0.2246,-0.229,-0.2399,-0.2451,-0.2479,-0.2557,-0.2545,-0.2562,-0.2541,-0.2459,-0.2393,-0.2338,-0.2516,-0.2499,-0.2218,-0.2217,-0.2152,-0.2146,-0.2141,-0.2137,-0.2134,0,-0.1668,-0.1701,-0.1852,-0.1896,-0.1965,-0.2064,-0.212,-0.2256,-0.2294,-0.242,-0.2417,-0.2467,-0.2493,-0.2339,-0.2377,-0.2308,-0.2281,-0.2235,-0.222,-0.2197,-0.2177,-0.2184,-0.219,-0.2126,-0.2125,-0.2124,-0.2122,0,-0.158,-0.1652,-0.1711,-0.1799,-0.1876,-0.1947,-0.204,-0.2055,-0.219,-0.2314,-0.2289,-0.2271,-0.2255,-0.2225,-0.2188,-0.214,-0.2256,-0.2184,-0.2194,-0.218,-0.2166,-0.2152,-0.2163,-0.2106,-0.2108,-0.211,-0.2111,0,-0.151,-0.1528,-0.1614,-0.1671,-0.1761,-0.1789,-0.1866,-0.1907,-0.1964,-0.2109,-0.2092,-0.2146,-0.223,-0.2137,-0.21,-0.2042,-0.2008,-0.1936,-0.1958,-0.1977,-0.1924,-0.1881,-0.1698,0,0,0,0,0,-0.1426,-0.1428,-0.1476,-0.1533,-0.1614,-0.1661,-0.1784,-0.1865,-0.2,-0.1928,-0.2008,-0.1983,-0.1932,-0.1961,-0.186,-0.2012,-0.2014,-0.1885,-0.1943,-0.2014,-0.2033,-0.1986,0,0,0,0,0,0,-0.1372,-0.141,-0.1422,-0.1393,-0.1403,-0.1474,-0.1543,-0.1647,-0.1623,-0.1766,-0.1746,-0.1853,-0.183,-0.1952,-0.1814,-0.1821,-0.1815,-0.1932,-0.1926,-0.2003,-0.202,-0.2036,-0.1994,0,0,0,0,0]},{"header":{"parameterUnit":"m.s-1","parameterCategory":2,"la1":30.2991,"la2":30.254,"lo1":-89.0895,"lo2":-89.0444,"dy":0.0017,"dx":0.0017,"nx":28,"ny":28,"refTime":"2024-12-05T09:00:00:Z","depth":"4","parameterNumber":3,"parameterNumberName":"V-component_of_CURRENTS"},"data":[0,0,0,0,0,0,0,0,0,0,0,0,0,0,0,0,0,0,0,0,0,0,0,0,0,0,0,0,0,0,0,0,0,0,0,0,0,0,0,0,0,0,0,0,0,0,0,0,0,0,0,0,0,0,0,0,0,0,-0.0174,-0.0174,0,-0.0118,-0.0117,-0.0116,-0.0076,-0.0076,-0.0076,-0.0076,0.0008,0.001,0.0012,0,0,0,0,0,0,0,0,0,0,0,0,0,-0.02,-0.02,-0.0174,-0.0174,-0.0173,-0.0118,-0.0117,-0.0116,-0.0077,-0.0076,-0.0076,-0.0076,0.0008,0.001,0.0012,0,0,0,0,0,0,0,0,0,0,0,0,0,-0.017,-0.02,-0.0175,-0.0147,-0.0145,-0.0118,-0.0117,-0.0116,-0.0077,-0.0076,-0.0076,-0.0076,0.0007,0.001,0.0013,0.0025,0,0,0.0022,0.0023,0,0,0,0,0,0,0,0,-0.0172,-0.0169,-0.0152,-0.0149,-0.0146,-0.0105,-0.0095,-0.0068,-0.0077,-0.0101,-0.0076,-0.0075,-0.0028,-0.0022,-0.0011,0.0029,0.0032,0.0022,0.0024,0.0026,0.0026,0,0,0,0,0,0,0,-0.0174,-0.0171,-0.0151,-0.0151,-0.0148,-0.0122,-0.0117,-0.009,-0.0066,-0.0099,-0.0096,-0.0092,-0.0026,-0.0014,-0.0009,0.0033,0.0022,0.0025,0.0027,0.0028,0.0089,0.0089,0,0,0,0,0,0,-0.0186,-0.0173,-0.0153,-0.015,-0.0159,-0.0122,-0.0117,-0.0118,-0.0067,-0.0059,-0.0092,-0.009,-0.0019,-0.0012,-0.0006,0.0006,0.0025,0.0028,0.003,0.0089,0.0089,0.0089,0,0,0,0,0,0,-0.0187,-0.0185,-0.0155,-0.016,-0.0155,-0.0122,-0.0123,-0.0117,-0.0108,-0.0062,-0.0053,-0.0091,-0.0019,-0.001,0.0016,0.0009,0.003,0.0032,0.0089,0.0089,0.0089,0.0032,0,0,0,0,0,0,-0.0188,-0.0186,-0.0193,-0.0161,-0.0155,-0.0147,-0.0123,-0.0116,-0.0106,-0.0103,-0.0058,-0.0049,-0.0018,0.0011,0.0018,0.0014,0.0035,0.009,0.0089,0.0089,0.0034,0.003,0.0026,0,0,0,0,0,-0.0189,-0.0202,-0.0194,-0.0191,-0.0166,-0.0148,-0.0142,-0.0117,-0.0107,-0.0107,-0.0075,-0.0051,0.0014,0.0013,0.0022,0.0018,0.009,0.0089,0.0089,0.0036,0.0031,0.0026,0,0,0,0,0,0,-0.0216,-0.0198,-0.0189,-0.0196,-0.0177,-0.0142,-0.0142,-0.0124,-0.0099,-0.0098,-0.0052,-0.0042,-0.0022,0.0005,0.0003,0.0035,0.0055,0.0057,0.0012,0.0007,0.0003,-0.0008,0.0037,0,0,0,0,0,-0.0227,-0.0233,-0.0207,-0.0214,-0.0208,-0.0177,-0.0168,-0.0151,-0.0124,-0.0113,-0.008,-0.0046,-0.0016,0.0,0.003,0.0047,0.0082,0.005,0.0046,0.0043,0.004,0.0087,0.0087,0.0087,0.0087,0.0087,0,0,-0.024,-0.0231,-0.0234,-0.022,-0.0204,-0.0203,-0.017,-0.0164,-0.0159,-0.0108,-0.0094,-0.006,-0.0015,0.0005,0.0016,0.0027,0.0061,0.0042,0.0038,0.0038,0.0086,0.0087,0.0087,0.0087,0.0087,0.0087,0,0,-0.027,-0.0261,-0.0277,-0.0265,-0.0249,-0.0229,-0.023,-0.02,-0.0184,-0.0167,-0.0127,-0.0097,-0.0056,-0.0021,0.0001,-0.0008,0.0037,-0.0001,-0.0028,0.0017,0.0017,0.0018,0.0062,0.0068,-0.0002,-0.0002,-0.0002,0,-0.0287,-0.0302,-0.0278,-0.0287,-0.0283,-0.0245,-0.0257,-0.0234,-0.0199,-0.0185,-0.0172,-0.0102,-0.0067,-0.0032,-0.0036,-0.0017,0.0016,-0.0015,0.0011,0.0013,0.0015,0.006,0.0067,-0.0005,-0.0005,-0.0004,-0.0004,0,-0.0324,-0.0337,-0.0345,-0.0345,-0.0336,-0.034,-0.0307,-0.0295,-0.0271,-0.0242,-0.0205,-0.0152,-0.011,-0.0094,-0.0069,-0.0039,-0.0018,-0.0,0.0022,0.0011,0.006,0.0067,-0.0009,-0.0008,-0.0007,-0.0006,0,0,-0.0359,-0.0371,-0.0374,-0.0387,-0.0368,-0.0366,-0.0357,-0.0334,-0.0325,-0.0282,-0.0261,-0.0208,-0.0173,-0.0146,-0.0103,-0.0064,-0.0025,-0.0035,-0.0031,0.0005,0.0076,0.0072,0.0081,-0.0003,-0.0002,-0.0002,0.0104,0,-0.0396,-0.0435,-0.0424,-0.0454,-0.0468,-0.0432,-0.0427,-0.0398,-0.0362,-0.033,-0.0264,-0.023,-0.0194,-0.0174,-0.0129,-0.0049,-0.0008,-0.0056,0.0084,0.0089,0.0083,0.0089,0.0002,0.011,0.0112,0.0114,0.0115,0,-0.0433,-0.0455,-0.0498,-0.051,-0.0512,-0.0523,-0.0503,-0.0492,-0.0431,-0.04,-0.0347,-0.0289,-0.0222,-0.0193,-0.0062,-0.0094,-0.002,0.0044,0.005,0.0071,0.0099,0.0125,0.0129,0.0128,0.0127,0.0126,0.0125,0,-0.0469,-0.0503,-0.0543,-0.0548,-0.0554,-0.0565,-0.0562,-0.0518,-0.0507,-0.0443,-0.0421,-0.0327,-0.028,-0.0175,-0.0046,-0.0053,0.0104,0.0114,0.0185,0.0187,0.0183,0.0181,0.0204,0.0204,0.0204,0.0203,0.0203,0,-0.0506,-0.0538,-0.0571,-0.0592,-0.0635,-0.0616,-0.0637,-0.0613,-0.0574,-0.0554,-0.0465,-0.0423,-0.0275,-0.0165,-0.0051,0.0093,0.0104,0.0183,0.0213,0.0157,0.0151,0.0189,0.0186,0.0207,0.0206,0.0206,0.0205,0,-0.0534,-0.0558,-0.0609,-0.0641,-0.0658,-0.0687,-0.0703,-0.0707,-0.0661,-0.0631,-0.0613,-0.0491,-0.0346,-0.0188,-0.0004,0.008,0.0222,0.027,0.0201,0.0226,0.0275,0.0268,0.0355,0.0356,0.0357,0.0357,0.0358,0,-0.055,-0.0582,-0.0653,-0.0694,-0.0718,-0.0757,-0.0781,-0.0758,-0.0751,-0.0666,-0.065,-0.0512,-0.0412,-0.015,0.0005,0.023,0.0255,0.0326,0.0294,0.027,0.0291,0.0283,0.0275,0.0359,0.0359,0.0359,0.0359,0,-0.0575,-0.0609,-0.0651,-0.0739,-0.0792,-0.0835,-0.0862,-0.0864,-0.0814,-0.0779,-0.0661,-0.0513,-0.0348,-0.0151,0.0026,0.0183,0.0278,0.0333,0.0332,0.0303,0.0275,0.0294,0.0285,0.0361,0.0361,0.0361,0.0361,0,-0.059,-0.0631,-0.0697,-0.0767,-0.0841,-0.0884,-0.0897,-0.0872,-0.0854,-0.0749,-0.0713,-0.0518,-0.0406,-0.0175,-0.0011,0.0143,0.0173,0.0212,0.0219,0.0218,0.0141,0.0083,0.0139,0,0,0,0,0,-0.0593,-0.0642,-0.0717,-0.0792,-0.0865,-0.0904,-0.0934,-0.0929,-0.0885,-0.0807,-0.0753,-0.0589,-0.0329,-0.0219,-0.0065,-0.0018,0.0184,0.0165,0.0228,0.0374,0.0371,0.0303,0,0,0,0,0,0,-0.0598,-0.067,-0.0712,-0.0794,-0.0848,-0.0916,-0.0939,-0.0914,-0.0859,-0.0795,-0.0659,-0.0562,-0.0317,-0.0414,-0.0064,-0.0017,0.0041,0.0292,0.0295,0.0375,0.0373,0.0371,0.03,0,0,0,0,0]}]]